CZ-2D DEB (45797 NORAD) Tracking and Keplerian Element Data

This shows tracking and keplerian element data for the satellite.

Feedback or suggestion? Click here.




ElementValue
Catalog45797
NameCZ-2D DEB
Epoch Orbit242
Epoch Day185.31883961
Epoch Year2020
RAAN306.264
Inclination97.2182
Eccentricity0.0011231
Argument of Perigee39.1198
Mean Anonmoly321.0854
Mean Motion15.22556654
Decay Rate1.124E-05
L11 45797U 20039D 20185.31883961 .00001124 00000-0 51263-4 0 9990
L22 45797 97.2182 306.2640 0011231 39.1198 321.0854 15.22556654 2425

Live tracking and technical data element details for CZ-2D DEB (NORAD 45797). CZ-2D DEB can be tracked NOW for your location showing map with azimuth and elevation plus other details from your city location.

Track the satellite on the map from your city or location and see movement details for azimuth, elevation, latitude, longitude, range, height, and movement on the map or in text.







IsCatalogInMostPopularTable: catalog: 45797, numindb: 7
Update: records affected: 1



GetName: 45797 CZ-2D DEB

Hit Count: updated at: Sat, 04 Jul 2020 02:24:59 GMT